GW0388 Weather Reports


time (UTC)temp
F
wind
direction
speed
knots
gust
knots
rain 1hr
in
rain 24hr
in
rain mn
in
humidity
%
barometer
mb
20260503224553 90 54 1.7 6.1 0.00 0.00 0.00 22 1007.8
20260503223054 90 46 2.6 7.0 0.00 0.00 0.00 23 1008.0
20260503221554 90 59 2.6 4.3 0.00 0.00 0.00 27 1008.2
20260503220105 90 65 1.7 5.2 0.00 0.00 0.00 27 1008.4
20260503214647 89 86 1.7 7.0 0.00 0.00 0.00 27 1008.6
20260503213128 89 30 0.9 7.0 0.00 0.00 0.00 28 1008.7
20260503211620 88 77 2.6 7.8 0.00 0.00 0.00 26 1008.9
20260503210052 87 21 2.6 7.8 0.00 0.00 0.00 31 1009.0
20260503204606 87 60 3.5 8.7 0.00 0.00 0.00 32 1009.2
20260503203054 86 52 3.5 7.8 0.00 0.00 0.00 32 1009.4
20260503201554 86 341 1.7 7.8 0.00 0.00 0.00 33 1009.6
20260503200054 85 24 1.7 5.2 0.00 0.00 0.00 34 1009.8
20260503194553 85 314 1.7 7.8 0.00 0.00 0.00 34 1010.1
20260503193056 83 0 2.6 7.0 0.00 0.00 0.00 36 1010.1
20260503191604 83 40 2.6 7.0 0.00 0.00 0.00 38 1010.2
20260503190057 82 348 2.6 5.2 0.00 0.00 0.00 37 1010.4
20260503184616 81 21 0.9 5.2 0.00 0.00 0.00 41 1010.6
20260503183106 81 69 2.6 5.2 0.00 0.00 0.00 43 1010.6
20260503181554 79 0 0.9 4.3 0.00 0.00 0.00 46 1010.8
20260503180057 78 42 1.7 5.2 0.00 0.00 0.00 48 1010.9
20260503174610 77 40 2.6 6.1 0.00 0.00 0.00 53 1011.0
20260503173118 75 40 0.9 5.2 0.00 0.00 0.00 56 1011.2
20260503171553 74 54 1.7 4.3 0.00 0.00 0.00 56 1011.3
20260503100106 54 0 0.0 0.0 0.00 0.00 0.00 92 1011.8
20260503090104 55 0 0.0 0.0 0.00 0.00 0.00 91 1012.0
20260503081600 56 0 0.0 0.0 0.00 0.00 0.00 90 1012.0
20260503071611 59 0 0.0 0.0 0.00 0.00 0.00 86 1012.3
20260503070111 59 0 0.0 0.0 0.00 0.00 0.00 86 1012.1
20260503060114 62 32 0.0 5.2 0.00 0.00 0.00 81 1012.1
20260503054559 63 25 2.6 5.2 0.00 0.00 0.00 80 1012.1
20260503053055 63 34 1.7 7.0 0.00 0.00 0.00 79 1012.3
20260503051553 63 22 0.9 4.3 0.00 0.00 0.00 80 1012.3
20260503050100 63 350 0.9 4.3 0.00 0.00 0.00 80 1012.4
20260503044554 63 0 0.9 7.0 0.00 0.00 0.00 78 1012.6
20260503043058 64 347 0.9 7.0 0.00 0.00 0.00 78 1012.5
20260503041552 64 0 1.7 4.3 0.00 0.00 0.00 78 1012.5
20260503040057 64 0 0.0 3.5 0.00 0.00 0.00 76 1012.2
20260503034555 64 302 0.0 4.3 0.00 0.00 0.00 75 1012.0
20260503033101 64 201 1.7 6.1 0.00 0.00 0.00 75 1012.1
20260503031552 64 263 1.7 7.0 0.00 0.00 0.00 74 1012.0
20260503030057 65 252 1.7 5.2 0.00 0.00 0.00 74 1012.1
20260503024552 65 231 2.6 10.4 0.00 0.00 0.00 73 1012.0
20260503023055 66 213 4.3 13.0 0.00 0.00 0.00 71 1011.8
20260503021557 67 247 3.5 10.4 0.00 0.00 0.00 71 1011.5
20260503014627 71 181 2.6 8.7 0.00 0.00 0.00 66 1011.1
20260503013053 72 0 0.0 4.3 0.00 0.00 0.00 64 1011.0
20260503011617 72 0 0.0 1.7 0.00 0.00 0.00 62 1010.9
20260503010057 72 0 0.0 2.6 0.00 0.00 0.00 61 1010.8
20260503004602 72 196 0.0 5.2 0.00 0.00 0.00 62 1010.8
20260503003058 73 219 0.0 4.3 0.00 0.00 0.00 60 1010.8
20260503001608 73 126 0.0 2.6 0.00 0.00 0.00 59 1010.9
20260503000121 73 102 0.0 6.1 0.00 0.00 0.00 59 1011.0
20260502234618 74 123 0.9 3.5 0.00 0.00 0.00 58 1011.1
20260502233057 72 0 0.0 1.7 0.00 0.00 0.00 58 1011.4
20260502231553 71 0 0.0 3.5 0.00 0.00 0.00 60 1011.6
20260502230057 70 77 0.9 7.0 0.00 0.00 0.00 60 1011.7